Annaba, Algeria

8:11 AM CET on April 26, 2019 (GMT +0100)
Annaba

Weather History for DABB - April, 2019

Change the Weather History Date:

Friday, April 26, 2019

  Actual Average Record
Temperature  
Mean Temperature 58 °F -  
Max Temperature 62 °F 73 °F - ()
Min Temperature 55 °F 54 °F - ()
Degree Days  
Heating Degree Days 8    
Growing Degree Days 8 (Base 50)    
Moisture  
Dew Point 57 °F    
Average Humidity 97    
Maximum Humidity 100    
Minimum Humidity 94    
Precipitation  
Precipitation 0.00 in 0.04 in - ()
Sea Level Pressure  
Sea Level Pressure 30.06 in    
Wind  
Wind Speed 2 mph ()    
Max Wind Speed 7 mph    
Max Gust Speed -    
Visibility 3.9 miles    
Events      
T = Trace of Precipitation, MM = Missing Value Source: Averaged Metar Reports

Daily Weather History Graph

Daily Weather History Graph

Search for Another Location

Airport or City:

Astronomy

Apr. 26, 2019 Rise Set
Actual Time 5:41 AM CET 7:12 PM CET
Civil Twilight 5:13 AM CET 7:40 PM CET
Nautical Twilight 4:40 AM CET 8:13 PM CET
Astronomical Twilight 4:06 AM CET 8:47 PM CET
Moon 1:11 AM CET 11:16 AM CET
Length of Visible Light 14h 26m
Length of Day
13h 31m
Waning Gibbous, 55% of the Moon is Illuminated
Today
Waning Gibbous
Apr 26
Last Quarter
May 4
New
May 12
First Quarter
May 18
Full

Hourly Weather History & Observations

Time (CET) Temp. Dew Point Humidity Pressure Visibility Wind Dir Wind Speed Gust Speed Precip Events Conditions
12:00 AM 57.2 °F 55.4 °F 94% 30.04 in 5.0 mi South 1.2 mph - N/A   Scattered Clouds
12:30 AM 57.2 °F 55.4 °F 94% 30.04 in 5.0 mi SSW 3.5 mph - N/A   Scattered Clouds
1:00 AM 56 °F 55 °F 97% 30.05 in 5 mi South 1.2 mph - -   Scattered Clouds
1:00 AM 57.2 °F 55.4 °F 94% 30.04 in 5.0 mi South 1.2 mph - N/A   Scattered Clouds
1:30 AM 57.2 °F 55.4 °F 94% 30.04 in 5.0 mi Calm Calm - N/A   Unknown
2:00 AM 55.4 °F 53.6 °F 94% 30.04 in 5.0 mi Calm Calm - N/A   Unknown
2:30 AM 57.2 °F 55.4 °F 94% 30.04 in 5.0 mi Calm Calm - N/A   Unknown
3:00 AM 55.4 °F 55.4 °F 100% 30.04 in 4.3 mi SSW 2.3 mph - N/A   Unknown
3:30 AM 55.4 °F 55.4 °F 100% 30.04 in 4.3 mi SSW 2.3 mph - N/A   Unknown
4:00 AM 59 °F 58 °F 97% 30.06 in 4 mi SSW 1.2 mph - -   Clear
4:00 AM 59.0 °F 59.0 °F 100% 30.06 in 4.3 mi SSW 1.2 mph - N/A   Unknown
4:30 AM 59.0 °F 59.0 °F 100% 30.06 in 4.3 mi Calm Calm - N/A   Unknown
5:00 AM 59.0 °F 59.0 °F 100% 30.06 in 4.3 mi South 4.6 mph - N/A   Unknown
5:30 AM 59.0 °F 59.0 °F 100% 30.06 in 4.3 mi Calm Calm - N/A   Unknown
6:00 AM 57.2 °F 57.2 °F 100% 30.09 in 1.2 mi South 3.5 mph - N/A   Mist
6:30 AM 57.2 °F 57.2 °F 100% 30.09 in 1.2 mi SW 2.3 mph - N/A   Mist
7:00 AM 60 °F 60 °F 98% 30.12 in 1 mi WSW 3.5 mph - -   Mist
7:30 AM 60.8 °F 60.8 °F 100% 30.09 in 2.5 mi WSW 4.6 mph - N/A   Mist
8:00 AM 62.6 °F 60.8 °F 94% 30.09 in 3.7 mi SW 6.9 mph - N/A   Scattered Clouds